Location: El Azufral
(10.3513°N, 67.1528°W)
Time: 10:10:39
(UTC+00:00)

Cosmos 1452 Rocket - Pass Details

Date: 13 June 2024
Orbit: 765 x 772 km, 74.1° (Epoch: 19 July)

Event Time Altitude Azimuth Distance (km) Brightness Sun altitude
Rises 23:01:08 0° 340° (NNW) 3,226 7.5 -3.2°
Reaches altitude 10° 23:03:32 10° 336° (NNW) 2,302 6.8 -3.7°
Maximum altitude 23:08:39 58° 258° (WSW) 896 4.3 -4.9°
Drops below altitude 10° 23:13:47 10° 180° (S) 2,308 5.7 -6.0°
Sets 23:16:12 0° 176° (S) 3,235 6.4 -6.5°
